This is the latest recevied weather packets stored in our database for station/object KD8FRE. If no packets are shown the sender has not sent any weather packets the latest 10 day(s).
| Time | Temp. | Humidity | Pressure | Rain* | Wind** | Luminosity | Snow |
|---|---|---|---|---|---|---|---|
| 1777657414 | 8.33° C | 50% | 1013.9 hPa | 0 mm | - | 142 W/m² | - |
| 1777657112 | 8.89° C | 51% | 1013.8 hPa | 0 mm | - | 185 W/m² | - |
| 1777656809 | 8.33° C | 51% | 1013.8 hPa | 0 mm | - | 310 W/m² | - |
| 1777656504 | 8.33° C | 52% | 1013.9 hPa | 0 mm | - | 320 W/m² | - |
| 1777656200 | 8.33° C | 52% | 1013.9 hPa | 0 mm | - | 333 W/m² | - |
| 1777655895 | 8.33° C | 53% | 1014 hPa | 0 mm | - | 302 W/m² | - |
| 1777655600 | 8.33° C | 51% | 1013.9 hPa | 0 mm | - | 226 W/m² | - |
| 1777655289 | 8.33° C | 54% | 1014 hPa | 0 mm | - | 198 W/m² | - |
| 1777654986 | 8.33° C | 52% | 1013.9 hPa | 0 mm | - | 194 W/m² | - |
| 1777654683 | 8.89° C | 51% | 1014 hPa | 0 mm | - | 249 W/m² | - |
| 1777654381 | 8.33° C | 52% | 1013.9 hPa | 0 mm | - | 273 W/m² | - |
| 1777654079 | 8.33° C | 53% | 1013.8 hPa | 0 mm | - | 269 W/m² | - |
| 1777653776 | 8.33° C | 53% | 1014 hPa | 0 mm | - | 283 W/m² | - |
| 1777653471 | 8.33° C | 52% | 1014.1 hPa | 0 mm | - | 251 W/m² | - |
| 1777653169 | 7.78° C | 56% | 1014 hPa | 0 mm | - | 207 W/m² | - |
| 1777652864 | 7.78° C | 57% | 1013.9 hPa | 0 mm | - | 178 W/m² | - |
| 1777652561 | 7.78° C | 57% | 1014 hPa | 0 mm | - | 123 W/m² | - |
| 1777652259 | 8.33° C | 55% | 1013.9 hPa | 0 mm | - | 121 W/m² | - |
| 1777651955 | 8.89° C | 53% | 1013.9 hPa | 0 mm | - | 153 W/m² | - |
| 1777651652 | 8.89° C | 52% | 1014 hPa | 0 mm | - | 212 W/m² | - |
| 1777651349 | 9.44° C | 50% | 1013.9 hPa | 0 mm | - | 274 W/m² | - |
| 1777651046 | 8.89° C | 52% | 1013.8 hPa | 0 mm | - | 461 W/m² | - |
| 1777650743 | 8.33° C | 53% | 1013.9 hPa | 0 mm | - | 288 W/m² | - |
| 1777650440 | 8.33° C | 55% | 1014 hPa | 0 mm | - | 203 W/m² | - |
| 1777650137 | 8.33° C | 51% | 1013.8 hPa | 0 mm | - | 209 W/m² | - |
* Rain latest hour (hover to see other rain measurements)
** Current wind speed in m/s (hover to see current wind gust speed)